#timestamp,LO_Frequency,Hit 
1500724815.6,286046995.3,N
1500724835.4,286046993.8,N
1500724855.2,286046992.4,Y
1500724875.1,286046995.6,N
1500724876.0,286046995.6,N
1500724895.8,286046996.3,N
1500724915.6,286046995.2,Y
1500724935.5,286047002.5,N
1500724955.3,286047003.4,N
1500724975.2,286047001.7,N
1500724995.0,286047006.8,N
1500724995.9,286047006.8,N
1500725015.8,286047010.3,N
1500725035.6,286047010.7,N
1500725055.4,286047009.2,N
1500725075.3,286047005.2,N
1500725095.1,286047004.7,N
1500725096.0,286047004.7,N
1500725115.8,286047004.5,N
1500725135.6,286047004.4,N
1500725155.5,286047003.6,N
1500725175.3,286047001.3,N
1500725195.1,286047003.9,N
1500725215.9,286047003.8,N
1500725235.7,286047005.7,N
1500725255.5,286047005.0,N
1500725275.4,286047010.4,Y
1500725295.2,286047003.8,N
1500725315.0,286047002.5,N
1500725315.9,286047002.5,N
1500725335.8,286046998.8,N
1500725355.6,286047000.1,N
1500725375.4,286047002.5,N
1500725395.3,286047000.1,N
1500725415.1,286047000.5,N
1500725416.0,286047000.5,N
1500725435.8,286047002.3,N
1500725455.7,286047002.2,N
1500725475.5,286046999.9,N
1500725495.3,286047000.2,N
1500725515.1,286046998.5,N
1500725535.9,286046995.3,N
1500725555.7,286046996.2,N
1500725575.5,286046994.0,N
1500725595.4,286046996.3,N
1500725615.2,286046994.1,N
1500725635.0,286046996.0,N
1500725635.9,286046996.0,N
1500725655.8,286046997.0,N
1500725675.6,286046996.6,N
1500725695.4,286046998.2,N
1500725715.3,286046999.4,N
1500725735.1,286047001.1,N
1500725736.0,286047001.1,N
1500725755.8,286047000.3,N
1500725775.6,286047004.0,N
1500725795.5,286047004.2,N
1500725815.3,286047003.9,N
1500725835.1,286047003.6,N
1500725855.9,286047005.6,N
1500725875.7,286047005.7,N
1500725895.5,286047005.2,N
1500725915.4,286047005.9,N
1500725935.2,286047005.2,N
1500725955.0,286047003.7,N
1500725955.9,286047003.7,N
1500725975.8,286047004.3,N
1500725995.6,286047003.7,N
1500726015.4,286047002.0,N
1500726035.2,286046999.7,N
1500726055.1,286047000.0,N
1500726056.0,286047000.0,N
1500726075.8,286047002.5,N
1500726095.6,286046999.9,N
1500726115.5,286046997.0,N
1500726135.3,286046997.7,N
1500726155.1,286046999.3,N
1500726175.9,286046997.5,N
1500726195.7,286046994.9,N
1500726215.5,286046997.6,N
1500726235.4,286046997.7,N
1500726255.2,286046993.3,N
1500726275.0,286046991.9,Y
1500726275.9,286046991.9,N
1500726295.8,286046997.3,N
1500726315.6,286046999.8,N
1500726335.4,286047004.0,N
1500726355.3,286046999.9,N
1500726375.1,286046998.1,N
1500726376.0,286046998.1,N
1500726395.8,286047002.3,N
1500726415.6,286047001.7,N
1500726435.5,286047004.0,N
1500726455.3,286047000.3,N
1500726475.1,286046998.3,N
1500726495.9,286046998.6,N
1500726515.7,286047000.0,N
1500726535.5,286047001.3,N
1500726555.4,286047003.1,N
1500726575.2,286047001.8,N
1500726595.0,286047001.4,N
1500726595.9,286047001.4,N
1500726615.8,286047003.7,N
1500726635.6,286047006.6,Y
1500726655.4,286047008.5,Y
1500726675.3,286047006.9,N
1500726695.1,286047006.0,N
1500726696.0,286047006.0,N
1500726715.8,286047005.5,N
1500726735.7,286047006.0,N
1500726755.5,286047001.3,N
1500726775.3,286047004.1,N
1500726795.2,286047003.1,N
1500726815.9,286046999.7,N
1500726835.7,286047001.1,N
1500726855.5,286046999.8,N
1500726875.4,286047001.7,N
1500726895.2,286047002.8,N
1500726915.0,286046998.9,N
1500726915.9,286046998.9,N
1500726935.8,286046998.7,N
1500726955.6,286046998.4,N
1500726975.4,286046999.6,N
1500726995.3,286046994.9,N
1500727015.1,286046997.6,N
1500727016.0,286046997.6,N
1500727035.8,286046995.4,N
1500727055.7,286046995.2,N
1500727075.5,286047000.2,N
1500727095.3,286047004.2,N
1500727115.1,286047004.6,N
1500727135.9,286047005.7,N
1500727155.7,286047004.9,N
1500727175.5,286047005.5,N
1500727195.4,286047002.4,N
1500727215.2,286047003.0,N
1500727235.0,286047005.6,N
1500727235.9,286047005.6,N
1500727255.8,286047003.8,N
1500727275.6,286047002.7,N
1500727295.4,286047000.8,N
1500727315.3,286046998.3,N
1500727335.1,286047001.2,N
1500727336.0,286047001.2,N
1500727355.8,286047005.5,N
1500727375.7,286047004.3,N
1500727395.5,286047001.4,N
1500727415.3,286047000.2,N
1500727435.1,286046999.9,N
1500727455.9,286046999.5,N
1500727475.7,28601500727535.7,286047003.7,Y
1500727555.5,286047003.1,N
1500727575.3,286047003.3,N
1500727595.2,286047005.3,Y
1500727615.9,286047001.4,N
1500727635.7,286047002.5,N
1500727655.6,286047002.2,N
1500727675.4,286047002.5,N
1500727695.2,286047002.7,N
1500727715.1,286047002.5,N
1500727716.0,286047002.5,N
1500727735.8,286047002.7,N
1500727755.6,286047000.6,N
1500727775.5,286047000.5,N
1500727795.3,286046998.9,N
1500727815.1,286046996.8,N
1500727835.8,286046996.5,N
1500727855.7,286046999.1,N
1500727875.5,286046997.3,N
1500727895.3,286046999.3,N
1500727915.2,286046998.3,N
1500727935.9,286047000.1,N
1500727955.7,286047000.2,N
1500727975.6,286047002.7,N
1500727995.4,286047001.4,N
1500728015.2,286047002.4,N
1500728035.0,286046996.6,N
1500728036.0,286046996.6,N
1500728055.8,286046997.8,N
1500728075.6,286047000.1,N
1500728095.4,286047001.3,N
1500728115.3,286047004.1,N
1500728135.1,286047002.6,N
1500728155.8,286046999.7,N
1500728175.7,286046999.9,N
1500728195.5,286046998.1,N
1500728215.3,286047001.2,N
1500728235.2,286046998.2,N
1500728255.9,286046998.6,N
1500728275.7,286047001.1,N
1500728295.5,286047000.5,N
1500728315.4,286047000.5,N
1500728335.2,286047000.6,N
1500728355.0,286047001.2,N
1500728355.9,286047001.2,N
1500728375.8,286046996.6,N
1500728395.6,286046998.9,N
